• In United Kingdom
  • List of Countries
  • For 7 days
  • Water Temperature
  • Satellite Maps
  • Weather Map
  • Weather Widgets
  • user-avatar
    Login

    Hourly Weather Viedma

    Today, 24 November, Friday

    Time Temperature Precipitation Wind Pressure Humidity
    00:00 +8°C° 0 mm 5 mps 759 mmHg 49%
    01:00 +7°C° 0 mm 4 mps 759 mmHg 50%
    02:00 +8°C° 0 mm 2 mps 758 mmHg 51%
    03:00 +8°C° 0 mm 3 mps 758 mmHg 50%
    04:00 +8°C° 0 mm 3 mps 759 mmHg 50%
    05:00 +8°C° 0 mm 3 mps 759 mmHg 49%
    06:00 +10°C° 0 mm 4 mps 759 mmHg 43%
    07:00 +12°C° 0 mm 5 mps 759 mmHg 36%
    08:00 +14°C° 0 mm 6 mps 759 mmHg 30%
    09:00 +16°C° 0 mm 6 mps 759 mmHg 26%
    10:00 +18°C° 0 mm 7 mps 759 mmHg 22%
    11:00 +21°C° 0 mm 7 mps 759 mmHg 18%
    12:00 +22°C° 0 mm 7 mps 758 mmHg 17%
    13:00 +24°C° 0 mm 7 mps 758 mmHg 17%
    14:00 +26°C° 0 mm 7 mps 757 mmHg 16%
    15:00 +26°C° 0 mm 6 mps 756 mmHg 16%
    16:00 +26°C° 0 mm 6 mps 755 mmHg 16%
    17:00 +27°C° 0 mm 5 mps 755 mmHg 16%
    18:00 +25°C° 0 mm 5 mps 755 mmHg 17%
    19:00 +23°C° 0 mm 5 mps 754 mmHg 19%
    20:00 +21°C° 0 mm 4 mps 754 mmHg 21%
    21:00 +21°C° 0 mm 5 mps 754 mmHg 20%
    22:00 +21°C° 0 mm 5 mps 754 mmHg 20%
    23:00 +20°C° 0 mm 6 mps 754 mmHg 20%

    Tomorrow, 25 November, Saturday

    Time Temperature Precipitation Wind Pressure Humidity
    00:00 +20°C° 0 mm 6 mps 754 mmHg 22%
    01:00 +20°C° 0 mm 6 mps 754 mmHg 23%
    02:00 +19°C° 0 mm 6 mps 754 mmHg 25%
    03:00 +19°C° 0 mm 6 mps 754 mmHg 30%
    04:00 +17°C° 0 mm 5 mps 755 mmHg 36%
    05:00 +16°C° 0 mm 5 mps 755 mmHg 42%
    06:00 +19°C° 0 mm 5 mps 755 mmHg 41%
    07:00 +20°C° 0 mm 6 mps 756 mmHg 40%
    08:00 +21°C° 0 mm 6 mps 756 mmHg 39%
    09:00 +23°C° 0 mm 6 mps 756 mmHg 37%
    10:00 +24°C° 0 mm 6 mps 756 mmHg 34%
    11:00 +26°C° 0 mm 6 mps 756 mmHg 32%
    12:00 +26°C° 0 mm 6 mps 756 mmHg 31%
    13:00 +27°C° 0 mm 6 mps 756 mmHg 30%
    14:00 +27°C° 0 mm 6 mps 755 mmHg 29%
    15:00 +27°C° 0 mm 5 mps 755 mmHg 28%
    16:00 +27°C° 0 mm 4 mps 755 mmHg 28%
    17:00 +27°C° 0 mm 3 mps 754 mmHg 28%
    18:00 +26°C° 0 mm 3 mps 754 mmHg 31%
    19:00 +24°C° 0 mm 3 mps 754 mmHg 33%
    20:00 +22°C° 0 mm 3 mps 754 mmHg 36%
    21:00 +21°C° 0 mm 4 mps 754 mmHg 39%
    22:00 +20°C° 0 mm 5 mps 754 mmHg 42%
    23:00 +20°C° 0 mm 6 mps 754 mmHg 45%

    Day after tomorrow, 26 November, Sunday

    Time Temperature Precipitation Wind Pressure Humidity
    00:00 +19°C° 0 mm 6 mps 753 mmHg 46%
    01:00 +19°C° 0 mm 6 mps 753 mmHg 47%
    02:00 +19°C° 0 mm 6 mps 752 mmHg 49%
    03:00 +19°C° 0 mm 6 mps 752 mmHg 47%
    04:00 +17°C° 0 mm 5 mps 751 mmHg 45%
    05:00 +17°C° 0 mm 5 mps 751 mmHg 44%
    06:00 +21°C° 0 mm 6 mps 751 mmHg 38%
    07:00 +24°C° 0 mm 6 mps 750 mmHg 32%
    08:00 +28°C° 0 mm 7 mps 750 mmHg 26%
    09:00 +29°C° 0 mm 7 mps 750 mmHg 25%
    10:00 +31°C° 0 mm 8 mps 749 mmHg 24%
    11:00 +33°C° 0 mm 8 mps 749 mmHg 23%
    12:00 +31°C° 0 mm 9 mps 748 mmHg 25%
    13:00 +28°C° 0 mm 9 mps 748 mmHg 27%
    14:00 +27°C° 0 mm 10 mps 748 mmHg 29%
    15:00 +26°C° 0 mm 10 mps 748 mmHg 31%
    16:00 +24°C° 0 mm 9 mps 748 mmHg 32%
    17:00 +22°C° 0 mm 9 mps 748 mmHg 33%
    18:00 +21°C° 0 mm 9 mps 750 mmHg 37%
    19:00 +18°C° 0 mm 9 mps 752 mmHg 42%
    20:00 +17°C° 0 mm 9 mps 754 mmHg 46%
    21:00 +16°C° 0 mm 10 mps 755 mmHg 52%
    22:00 +14°C° 0 mm 11 mps 757 mmHg 57%
    23:00 +13°C° 0 mm 12 mps 758 mmHg 62%

    27 November, Monday

    Time Temperature Precipitation Wind Pressure Humidity
    00:00 +12°C° 0 mm 12 mps 759 mmHg 58%
    01:00 +10°C° 0 mm 12 mps 760 mmHg 54%
    02:00 +11°C° 0 mm 11 mps 761 mmHg 50%
    03:00 +9°C° 0 mm 11 mps 762 mmHg 50%
    04:00 +9°C° 0 mm 10 mps 763 mmHg 50%
    05:00 +8°C° 0 mm 9 mps 763 mmHg 50%
    06:00 +10°C° 0 mm 9 mps 764 mmHg 49%
    07:00 +11°C° 0 mm 9 mps 765 mmHg 48%
    08:00 +12°C° 0 mm 9 mps 766 mmHg 47%
    09:00 +12°C° 0 mm 8 mps 766 mmHg 44%
    10:00 +14°C° 0 mm 7 mps 766 mmHg 42%
    11:00 +15°C° 0 mm 6 mps 767 mmHg 39%
    12:00 +15°C° 0 mm 6 mps 766 mmHg 38%
    13:00 +15°C° 0 mm 5 mps 766 mmHg 37%
    14:00 +16°C° 0 mm 5 mps 766 mmHg 36%
    15:00 +15°C° 0 mm 4 mps 766 mmHg 36%
    16:00 +15°C° 0 mm 4 mps 765 mmHg 37%
    17:00 +15°C° 0 mm 4 mps 765 mmHg 38%
    18:00 +14°C° 0 mm 4 mps 765 mmHg 43%
    19:00 +13°C° 0 mm 4 mps 765 mmHg 47%
    20:00 +10°C° 0 mm 5 mps 765 mmHg 52%
    21:00 +10°C° 0 mm 5 mps 765 mmHg 55%
    22:00 +9°C° 0 mm 6 mps 765 mmHg 59%
    23:00 +9°C° 0 mm 6 mps 765 mmHg 62%

    28 November, Tuesday

    Time Temperature Precipitation Wind Pressure Humidity
    00:00 +9°C° 0 mm 6 mps 764 mmHg 63%
    01:00 +9°C° 0 mm 7 mps 764 mmHg 64%
    02:00 +9°C° 0 mm 7 mps 763 mmHg 65%
    03:00 +8°C° 0 mm 7 mps 763 mmHg 65%
    04:00 +8°C° 0 mm 7 mps 763 mmHg 65%
    05:00 +8°C° 0 mm 7 mps 762 mmHg 65%
    06:00 +10°C° 0 mm 7 mps 762 mmHg 56%
    07:00 +14°C° 0 mm 7 mps 762 mmHg 47%
    08:00 +16°C° 0 mm 8 mps 762 mmHg 38%
    09:00 +20°C° 0 mm 7 mps 762 mmHg 32%
    10:00 +23°C° 0 mm 7 mps 761 mmHg 26%
    11:00 +26°C° 0 mm 7 mps 761 mmHg 20%
    12:00 +27°C° 0 mm 6 mps 760 mmHg 18%
    13:00 +29°C° 0 mm 6 mps 759 mmHg 16%
    14:00 +30°C° 0 mm 6 mps 759 mmHg 14%
    15:00 +30°C° 0 mm 6 mps 758 mmHg 14%
    16:00 +30°C° 0 mm 6 mps 757 mmHg 14%
    17:00 +30°C° 0 mm 6 mps 757 mmHg 15%
    18:00 +28°C° 0 mm 6 mps 757 mmHg 18%
    19:00 +26°C° 0 mm 6 mps 757 mmHg 22%
    20:00 +23°C° 0 mm 6 mps 757 mmHg 25%
    21:00 +22°C° 0 mm 7 mps 756 mmHg 30%
    22:00 +20°C° 0 mm 7 mps 756 mmHg 34%
    23:00 +18°C° 0 mm 8 mps 756 mmHg 39%

    29 November, Wednesday

    Time Temperature Precipitation Wind Pressure Humidity
    00:00 +18°C° 0 mm 8 mps 756 mmHg 37%
    01:00 +18°C° 0 mm 8 mps 755 mmHg 34%
    02:00 +18°C° 0 mm 7 mps 755 mmHg 32%
    03:00 +18°C° 0 mm 7 mps 755 mmHg 32%
    04:00 +18°C° 0 mm 7 mps 755 mmHg 32%
    05:00 +17°C° 0 mm 7 mps 756 mmHg 32%
    06:00 +20°C° 0 mm 8 mps 756 mmHg 30%
    07:00 +22°C° 0 mm 8 mps 756 mmHg 27%
    08:00 +24°C° 0 mm 8 mps 756 mmHg 25%
    09:00 +27°C° 0 mm 8 mps 756 mmHg 23%
    10:00 +29°C° 0 mm 8 mps 756 mmHg 20%
    11:00 +33°C° 0 mm 7 mps 755 mmHg 18%
    12:00 +33°C° 0 mm 7 mps 755 mmHg 19%
    13:00 +33°C° 0 mm 6 mps 755 mmHg 20%
    14:00 +33°C° 0 mm 6 mps 754 mmHg 20%
    15:00 +30°C° 0 mm 6 mps 754 mmHg 22%
    16:00 +29°C° 0 mm 6 mps 754 mmHg 24%
    17:00 +27°C° 0 mm 6 mps 754 mmHg 26%
    18:00 +24°C° 0 mm 6 mps 754 mmHg 33%
    19:00 +21°C° 0 mm 6 mps 755 mmHg 39%
    20:00 +19°C° 0 mm 6 mps 755 mmHg 46%
    21:00 +17°C° 0 mm 6 mps 755 mmHg 51%
    22:00 +17°C° 0 mm 6 mps 756 mmHg 55%
    23:00 +16°C° 0 mm 5 mps 756 mmHg 60%
    Show more